Location: Newark
(50.0306°N, 2.3272°E)
Time: 11:22:14
(UTC+00:00)

Vanguard 1 - Pass Details

Date: 16 December 2019
Orbit: 651 x 3832 km, 34.2° (Epoch: 17 January)

Event Time Altitude Azimuth Distance (km) Brightness Sun altitude
Exits shadow 00:42:34 24° 125° (SE) 5,792 13.8 -61.1°
Drops below altitude 10° 00:55:13 10° 93° (E) 6,820 14.4 -60.0°
Sets 01:01:44 0° 82° (E) 7,604 14.9 -59.4°
